FALCON 9 DEB (47410 NORAD) Tracking and Keplerian Element Data

This shows tracking and keplerian element data for the satellite.

Feedback or suggestion? Click here.




ElementValue
Catalog47410
NameFALCON 9 DEB
Epoch Orbit538
Epoch Day51.9891586
Epoch Year2021
RAAN47.6925
Inclination53.0442
Eccentricity0.0002746
Argument of Perigee282.6476
Mean Anonmoly77.4264
Mean Motion16.4224142
Decay Rate0.0813256
L11 47410U 21005BP 21051.98915860 .08132560 12433-4 44736-3 0 9998
L22 47410 53.0442 47.6925 0002746 282.6476 77.4264 16.42241420 5385

Live tracking and technical data element details for FALCON 9 DEB (NORAD 47410). FALCON 9 DEB can be tracked NOW for your location showing map with azimuth and elevation plus other details from your city location.

Track the satellite on the map from your city or location and see movement details for azimuth, elevation, latitude, longitude, range, height, and movement on the map or in text.







IsCatalogInMostPopularTable: catalog: 47410, numindb: 15
Update: records affected: 1



GetName: 47410 FALCON 9 DEB

Hit Count: updated at: Tue, 13 Apr 2021 05:28:52 GMT